Location: Essen
(51.4609°N, 7.0127°E)
Time: 12:22:24
(UTC+01:00)

Tiangong 2 - Visible Passes

Search period start: 23 November 2017 00:00
Search period end: 03 December 2017 00:00
Orbit: 386 x 392 km, 42.8° (Epoch: 22 November)

Date Brightness Start Highest point End Pass type
(mag) Time Alt. Az. Time Alt. Az. Time Alt. Az.
28 Nov 4.0 07:28:07 10° SSW 07:29:58 15° SSE 07:31:50 10° SE visible
29 Nov 4.1 06:30:45 10° S 06:32:00 12° SSE 06:33:15 10° SE visible
30 Nov 3.7 07:07:53 10° SW 07:10:02 17° S 07:12:12 10° SE visible
01 Dec 3.7 06:10:28 11° SSW 06:12:01 15° SSE 06:13:55 10° SE visible
02 Dec 4.3 05:15:06 11° SE 05:15:06 11° SE 05:15:20 10° SE visible
02 Dec 3.5 06:47:50 10° SW 06:50:05 18° S 06:52:19 10° SE visible
